Le nostre stazioni meteo in Italia

Pubblicità
Il mio iltempo24.it
Aosta, Italia (16054): Temperatura & dewpoint: 19.01.2020 07:00:00 - 25.01.2020 07:00:00 (CET)Aosta, Italia (16054): velocità del vento: 19.01.2020 07:00:00 - 25.01.2020 07:00:00 (CET)Aosta, Italia (16054): direzione del vento: 19.01.2020 07:00:00 - 25.01.2020 07:00:00 (CET)Aosta, Italia (16054): visibility: 19.01.2020 07:00:00 - 25.01.2020 07:00:00 (CET)
Data & Tempo tt [°C] td [°C] ff [km/h] ff [kn] dd vv [km]
25.01.2020 07:00:00 - - - - - -
25.01.2020 06:00:00 -0,6 -3,2 2 1 SE -
25.01.2020 05:00:00 -1,0 -3,2 4 2 OSO -
25.01.2020 04:00:00 -1,3 -3,7 0 0 N -
25.01.2020 03:00:00 -1,9 -4,3 2 1 ENE -
25.01.2020 02:00:00 -1,5 -4,0 4 2 NNE -
25.01.2020 01:00:00 -2,3 -5,3 0 0 N -
25.01.2020 00:00:00 -1,5 -4,7 0 0 N -
24.01.2020 23:00:00 -1,5 -5,1 0 0 N -
24.01.2020 22:00:00 -0,7 -4,5 0 0 N -
24.01.2020 21:00:00 -0,4 -4,2 4 2 SO -
24.01.2020 20:00:00 0,4 -3,9 4 2 SSO -
24.01.2020 19:00:00 1,9 -4,9 0 0 N -
24.01.2020 18:00:00 4,6 -4,0 0 0 N -
24.01.2020 17:00:00 7,0 -4,0 8 4 ENE -
24.01.2020 16:00:00 7,6 -2,8 0 0 N 10
24.01.2020 15:00:00 8,3 -4,0 4 2 SE 10
24.01.2020 14:00:00 7,8 -3,5 8 4 ENE 10
24.01.2020 13:00:00 6,7 -2,8 4 2 ENE -
24.01.2020 12:00:00 5,0 -1,8 0 0 N 10
24.01.2020 11:00:00 3,3 -1,1 2 1 - 10
24.01.2020 10:00:00 1,4 -2,1 8 4 NNO 10
24.01.2020 09:00:00 -0,7 -3,6 5 3 S 10
24.01.2020 08:00:00 -1,1 -3,8 5 3 SE -
24.01.2020 07:00:00 -1,6 -5,0 0 0 N -
24.01.2020 06:00:00 -1,7 -4,9 5 3 S -
24.01.2020 05:00:00 -1,7 -4,2 4 2 SO -
24.01.2020 04:00:00 -2,9 -5,3 2 1 O -
24.01.2020 03:00:00 -3,2 -6,2 2 1 S -
24.01.2020 02:00:00 -3,6 -6,4 0 0 N -
24.01.2020 01:00:00 -3,1 -6,1 2 1 N -
24.01.2020 00:00:00 -2,8 -6,5 0 0 N -
23.01.2020 23:00:00 -2,8 -6,5 5 3 OSO -
23.01.2020 22:00:00 -1,8 -5,7 2 1 SE -
23.01.2020 21:00:00 -2,1 -6,5 2 1 OSO -
23.01.2020 20:00:00 -1,4 -6,4 0 0 N -
23.01.2020 19:00:00 0,3 -5,8 0 0 N -
23.01.2020 18:00:00 1,7 -6,7 0 0 N -
23.01.2020 17:00:00 5,2 -5,9 11 6 NE 10
23.01.2020 16:00:00 8,5 -4,8 2 1 SSE -
23.01.2020 15:00:00 9,9 -4,6 9 5 E 10
23.01.2020 14:00:00 9,3 -3,7 8 4 S 10
23.01.2020 13:00:00 6,3 -1,2 5 3 - 10
23.01.2020 12:00:00 1,3 -1,6 2 1 - 10
23.01.2020 11:00:00 -2,0 -4,9 0 0 N -
23.01.2020 10:00:00 -2,5 -5,9 4 2 - 10
23.01.2020 09:00:00 -3,5 -6,0 4 2 - 10
23.01.2020 08:00:00 -4,5 -7,8 0 0 N 10
23.01.2020 07:00:00 -4,6 -7,7 2 1 O -
23.01.2020 06:00:00 -4,2 -7,5 0 0 N -
23.01.2020 05:00:00 -3,2 -6,9 0 0 N -
23.01.2020 04:00:00 -3,8 -7,5 0 0 N -
23.01.2020 03:00:00 -2,8 -6,3 4 2 SSO -
23.01.2020 02:00:00 -3,0 -6,7 4 2 OSO -
23.01.2020 01:00:00 -1,8 -6,2 2 1 SSO -
23.01.2020 00:00:00 -3,6 -7,6 0 0 N -
22.01.2020 23:00:00 -2,1 -6,4 4 2 SO -
22.01.2020 22:00:00 -1,7 -6,1 0 0 N -
22.01.2020 21:00:00 -1,3 -6,3 2 1 O -
22.01.2020 20:00:00 -0,2 -5,7 4 2 SO -
22.01.2020 19:00:00 0,4 -6,6 0 0 N -
22.01.2020 18:00:00 1,8 -6,6 0 0 N -
22.01.2020 17:00:00 4,3 -7,6 4 2 SSO 10
22.01.2020 16:00:00 10,2 -6,7 4 2 - 10
22.01.2020 15:00:00 8,9 -5,9 5 3 SE 10
22.01.2020 14:00:00 8,0 -5,6 2 1 - 10
22.01.2020 13:00:00 6,0 -3,5 0 0 N 10
22.01.2020 12:00:00 1,2 -3,5 0 0 N 10
22.01.2020 11:00:00 1,1 -2,5 4 2 - 10
22.01.2020 10:00:00 -2,3 -4,4 0 0 N 10
22.01.2020 09:00:00 -4,9 -7,4 0 0 N 10
22.01.2020 08:00:00 -5,0 -7,6 0 0 N 10
22.01.2020 07:00:00 -4,9 -7,9 2 1 NNO -
22.01.2020 06:00:00 -5,0 -8,8 0 0 N -
22.01.2020 05:00:00 -4,3 -8,5 2 1 SE -
22.01.2020 04:00:00 -2,9 -6,2 4 2 SO -
22.01.2020 03:00:00 -3,7 -7,5 0 0 N -
22.01.2020 02:00:00 -3,6 -7,4 0 0 N -
22.01.2020 01:00:00 -3,1 -7,3 2 1 S -
22.01.2020 00:00:00 -3,1 -7,7 0 0 N -
21.01.2020 23:00:00 -2,0 -6,8 0 0 N -
21.01.2020 22:00:00 -1,6 -6,6 0 0 N -
21.01.2020 21:00:00 -0,6 -6,4 0 0 N -
21.01.2020 20:00:00 -0,8 -7,3 4 2 OSO -
21.01.2020 19:00:00 -0,4 -7,8 0 0 N -
21.01.2020 18:00:00 0,8 -8,1 0 0 N -
21.01.2020 17:00:00 3,2 -6,9 4 2 - 10
21.01.2020 16:00:00 4,2 -7,4 0 0 N -
21.01.2020 15:00:00 6,9 -10,1 4 2 SE 10
21.01.2020 14:00:00 5,6 -9,2 5 3 E 10
21.01.2020 13:00:00 4,0 -5,1 4 2 ESE -
21.01.2020 12:00:00 -1,6 -5,2 0 0 N -
21.01.2020 11:00:00 -3,9 -7,1 4 2 - 10
21.01.2020 10:00:00 -5,1 -8,2 0 0 N 10
21.01.2020 09:00:00 -5,1 -8,6 2 1 ENE -
21.01.2020 08:00:00 -5,9 -9,3 2 1 - 10
21.01.2020 07:00:00 -5,2 -9,7 0 0 N -
21.01.2020 06:00:00 -3,7 -7,5 8 4 OSO -
21.01.2020 05:00:00 -5,9 -9,5 0 0 N -
21.01.2020 04:00:00 -5,0 -9,0 2 1 NE -
21.01.2020 03:00:00 -3,8 -8,2 0 0 N -
21.01.2020 02:00:00 -4,1 -7,8 8 4 SO -
21.01.2020 01:00:00 -3,7 -8,4 2 1 NNO -
21.01.2020 00:00:00 -3,2 -8,9 2 1 NO -
20.01.2020 23:00:00 -1,9 -7,3 2 1 NNO -
20.01.2020 22:00:00 -1,0 -7,9 0 0 N -
20.01.2020 21:00:00 0,9 -6,3 2 1 SO -
20.01.2020 20:00:00 0,0 -6,9 4 2 SO -
20.01.2020 19:00:00 0,1 -6,6 4 2 OSO -
20.01.2020 18:00:00 0,4 -8,2 2 1 S -
20.01.2020 17:00:00 1,8 -8,7 0 0 N -
20.01.2020 16:00:00 5,2 -11,1 4 2 - 10
20.01.2020 15:00:00 6,4 -11,4 4 2 SSO 10
20.01.2020 14:00:00 4,8 -10,7 4 2 SSE -
20.01.2020 13:00:00 2,2 -7,3 2 1 - 10
20.01.2020 12:00:00 -2,1 -7,3 2 1 S -
20.01.2020 11:00:00 -1,9 -5,6 4 2 - 10
20.01.2020 10:00:00 -4,2 -8,6 4 2 - 10
20.01.2020 09:00:00 -5,8 -9,9 2 1 - 10
20.01.2020 08:00:00 -6,0 -10,8 4 2 - 10
20.01.2020 07:00:00 -4,6 -8,9 4 2 SSO -
20.01.2020 06:00:00 -5,1 -9,2 0 0 N -
20.01.2020 05:00:00 -5,3 -9,4 4 2 S -
20.01.2020 04:00:00 -5,5 -9,3 0 0 N -
20.01.2020 03:00:00 -6,7 -11,1 4 2 NO -
20.01.2020 02:00:00 -5,7 -10,0 2 1 N -
20.01.2020 01:00:00 -5,7 -10,0 0 0 N -
20.01.2020 00:00:00 -4,8 -10,1 0 0 N -
19.01.2020 23:00:00 -4,3 -10,8 4 2 OSO -
19.01.2020 22:00:00 -5,4 -10,6 2 1 O -
19.01.2020 21:00:00 -3,5 -10,5 0 0 N -
19.01.2020 20:00:00 -1,8 -9,8 2 1 ESE -
19.01.2020 19:00:00 -2,0 -9,7 8 4 SO -
19.01.2020 18:00:00 -1,1 -11,4 0 0 N -
19.01.2020 17:00:00 1,4 -12,2 2 1 ONO -
19.01.2020 16:00:00 6,5 -13,2 4 2 - 10
19.01.2020 15:00:00 5,1 -13,9 0 0 N 10
19.01.2020 14:00:00 4,6 -10,4 0 0 N 10
19.01.2020 13:00:00 2,1 -7,4 4 2 - 10
19.01.2020 12:00:00 -1,6 -6,1 2 1 - 10
19.01.2020 11:00:00 -2,9 -7,1 0 0 N 10
19.01.2020 10:00:00 -4,3 -8,5 4 2 - 10
19.01.2020 09:00:00 -4,8 -9,0 4 2 - 10
19.01.2020 08:00:00 -6,1 -10,7 4 2 SSO 10
19.01.2020 07:00:00 -5,5 -9,6 2 1 O -

tt = Temperatura
td = dewpoint
ff = velocità del vento
dd = direzione del vento
vv = visibility

Stazioni seguenti

WeatherPro
AMSI
MeteoEarth